Вернуться в каталог

STARLINK-31933

АктивенСвязьVLEO
NORAD 59874·PAYLOAD·🇺🇸 United States

Запущен May 24, 2024 с Cape Canaveral Space Force Station

Loading…

Ближайшие Пролёты (ближайшие 24 часа)

TLE

СвежийSource: CelesTrak SupGP

Эпоха: Sep 14, 2026, 21:26 UTC

1 59874C 24098S   26257.89354167  .00001888  00000+0  68365-4 0  2574
2 59874  43.0010 289.4154 0001585 266.6819  74.9800 15.27577130    10

Отслеживайте STARLINK-31933 в реальном времени с AllMySat

Download on the App Store